TimeCST,TemperatureF,Dew PointF,Humidity,Sea Level PressureIn,VisibilityMPH,Wind Direction,Wind SpeedMPH,Gust SpeedMPH,PrecipitationIn,Events,Conditions,WindDirDegrees,DateUTC
12:52 AM,37.9,28.9,70,30.15,10.0,North,3.5,-,N/A,,Clear,10,2013-02-06 06:52:00
1:52 AM,37.0,28.9,73,30.16,10.0,Calm,Calm,-,N/A,,Clear,0,2013-02-06 07:52:00
2:52 AM,32.0,27.0,82,30.17,9.0,Calm,Calm,-,N/A,,Clear,0,2013-02-06 08:52:00
3:52 AM,30.9,27.0,85,30.19,7.0,NNW,4.6,-,N/A,,Clear,340,2013-02-06 09:52:00
4:52 AM,28.0,24.1,85,30.20,6.0,South,3.5,-,N/A,,Clear,170,2013-02-06 10:52:00
5:52 AM,27.0,23.0,85,30.22,6.0,Calm,Calm,-,N/A,,Clear,0,2013-02-06 11:52:00
6:21 AM,28.4,23.0,80,30.21,1.8,Calm,Calm,-,N/A,,Haze,0,2013-02-06 12:21:00
6:30 AM,28.4,24.8,86,30.21,3.0,Calm,Calm,-,N/A,,Clear,0,2013-02-06 12:30:00
6:52 AM,27.0,21.9,81,30.22,5.0,East,3.5,-,N/A,,Haze,80,2013-02-06 12:52:00
7:52 AM,32.0,27.0,82,30.24,5.0,SE,3.5,-,N/A,,Haze,140,2013-02-06 13:52:00
8:52 AM,37.9,30.0,73,30.25,7.0,SE,8.1,-,N/A,,Clear,130,2013-02-06 14:52:00
9:52 AM,41.0,30.0,65,30.27,10.0,SSE,5.8,-,N/A,,Clear,160,2013-02-06 15:52:00
10:52 AM,44.1,28.9,55,30.28,10.0,SSE,6.9,-,N/A,,Clear,160,2013-02-06 16:52:00
11:52 AM,46.9,28.0,48,30.25,10.0,SSE,5.8,-,N/A,,Clear,160,2013-02-06 17:52:00
12:52 PM,48.9,26.1,41,30.21,10.0,SE,4.6,-,N/A,,Clear,130,2013-02-06 18:52:00
1:52 PM,51.1,28.9,43,30.18,10.0,ESE,4.6,-,N/A,,Clear,110,2013-02-06 19:52:00
2:52 PM,51.1,28.0,41,30.18,10.0,SSE,5.8,-,N/A,,Clear,160,2013-02-06 20:52:00
3:52 PM,51.1,28.9,43,30.16,10.0,East,8.1,-,N/A,,Clear,100,2013-02-06 21:52:00
4:52 PM,48.9,30.9,50,30.15,10.0,East,8.1,-,N/A,,Clear,80,2013-02-06 22:52:00
5:52 PM,46.0,30.9,56,30.14,10.0,East,8.1,-,N/A,,Clear,100,2013-02-06 23:52:00
6:52 PM,45.0,30.9,58,30.16,10.0,ESE,6.9,-,N/A,,Clear,110,2013-02-07 00:52:00
7:52 PM,43.0,33.1,68,30.15,10.0,ESE,5.8,-,N/A,,Clear,120,2013-02-07 01:52:00
8:52 PM,42.1,32.0,67,30.15,10.0,ESE,8.1,-,N/A,,Clear,110,2013-02-07 02:52:00
9:52 PM,41.0,32.0,70,30.13,10.0,SE,5.8,-,N/A,,Clear,130,2013-02-07 03:52:00
10:52 PM,41.0,32.0,70,30.12,10.0,East,3.5,-,N/A,,Clear,80,2013-02-07 04:52:00
11:52 PM,39.0,30.9,73,30.10,10.0,ESE,4.6,-,N/A,,Clear,120,2013-02-07 05:52:00